Terminal Aerodrome Forecast
Issued by NWS

Home | Current Version | Previous Version | Graphics & Text | Print | Product List | Glossary On
Versions: 1 2 3 4 5 6 7 8 9 10 11 12 13 14 15 16 17 18 19 20 21 22
623
FTUS43 KUNR 261720
TAFGCC
TAF
KGCC 261720Z 2618/2718 35015KT 1/2SM SN FZFG VV004
     FM270300 34008KT P6SM BKN007 OVC010=

USA.gov is the U.S. government's official web portal to all federal, state and local government web resources and services.